Hourly Weather Aburi

Today, 7 March, Sunday

Time Temperature Precipitation Wind Pressure Humidity
00:00 +29°C° 0 mm 4 mps 744 mmHg 79%
01:00 +29°C° 0 mm 3 mps 743 mmHg 79%
02:00 +28°C° 0 mm 3 mps 743 mmHg 79%
03:00 +28°C° 0 mm 3 mps 742 mmHg 80%
04:00 +28°C° 0 mm 2 mps 743 mmHg 81%
05:00 +28°C° 0 mm 2 mps 743 mmHg 81%
06:00 +27°C° 0 mm 2 mps 743 mmHg 84%
07:00 +29°C° 0 mm 2 mps 744 mmHg 77%
08:00 +30°C° 0 mm 2 mps 744 mmHg 71%
09:00 +31°C° 0 mm 2 mps 745 mmHg 64%
10:00 +34°C° 0 mm 3 mps 744 mmHg 58%
11:00 +35°C° 0 mm 3 mps 744 mmHg 53%
12:00 +36°C° 0 mm 3 mps 744 mmHg 47%
13:00 +36°C° 0.1 mm 4 mps 743 mmHg 48%
14:00 +36°C° 0.1 mm 4 mps 742 mmHg 49%
15:00 +36°C° 0.1 mm 5 mps 741 mmHg 50%
16:00 +35°C° 0.2 mm 5 mps 741 mmHg 55%
17:00 +34°C° 0.2 mm 5 mps 742 mmHg 60%
18:00 +32°C° 0.2 mm 5 mps 742 mmHg 64%
19:00 +32°C° 0 mm 5 mps 742 mmHg 67%
20:00 +30°C° 0 mm 4 mps 743 mmHg 70%
21:00 +30°C° 0 mm 4 mps 743 mmHg 73%
22:00 +29°C° 0 mm 4 mps 743 mmHg 75%
23:00 +29°C° 0 mm 4 mps 743 mmHg 77%

Tomorrow, 8 March, Monday

Time Temperature Precipitation Wind Pressure Humidity
00:00 +29°C° 0 mm 4 mps 743 mmHg 78%
01:00 +28°C° 0 mm 4 mps 743 mmHg 79%
02:00 +28°C° 0 mm 4 mps 742 mmHg 80%
03:00 +28°C° 0 mm 4 mps 741 mmHg 80%
04:00 +28°C° 0 mm 4 mps 741 mmHg 82%
05:00 +27°C° 0 mm 4 mps 742 mmHg 83%
06:00 +27°C° 0 mm 3 mps 742 mmHg 84%
07:00 +28°C° 0 mm 4 mps 743 mmHg 78%
08:00 +30°C° 0 mm 4 mps 743 mmHg 72%
09:00 +32°C° 0 mm 5 mps 744 mmHg 66%
10:00 +33°C° 0 mm 4 mps 743 mmHg 60%
11:00 +35°C° 0 mm 4 mps 743 mmHg 55%
12:00 +36°C° 0 mm 4 mps 743 mmHg 49%
13:00 +36°C° 0.1 mm 4 mps 742 mmHg 50%
14:00 +35°C° 0.1 mm 5 mps 741 mmHg 51%
15:00 +35°C° 0.1 mm 5 mps 740 mmHg 53%
16:00 +34°C° 0.1 mm 5 mps 741 mmHg 57%
17:00 +33°C° 0.1 mm 5 mps 741 mmHg 61%
18:00 +32°C° 0.1 mm 5 mps 741 mmHg 65%
19:00 +32°C° 0.1 mm 5 mps 741 mmHg 68%
20:00 +30°C° 0.1 mm 5 mps 742 mmHg 71%
21:00 +29°C° 0.1 mm 5 mps 742 mmHg 74%
22:00 +29°C° 0 mm 5 mps 742 mmHg 75%
23:00 +29°C° 0 mm 4 mps 742 mmHg 75%

Day after tomorrow, 9 March, Tuesday

Time Temperature Precipitation Wind Pressure Humidity
00:00 +29°C° 0 mm 4 mps 742 mmHg 76%
01:00 +28°C° 0 mm 4 mps 742 mmHg 76%
02:00 +28°C° 0 mm 4 mps 741 mmHg 77%
03:00 +28°C° 0 mm 4 mps 741 mmHg 77%
04:00 +28°C° 0 mm 4 mps 741 mmHg 78%
05:00 +27°C° 0 mm 3 mps 741 mmHg 79%
06:00 +27°C° 0 mm 3 mps 741 mmHg 79%
07:00 +28°C° 0 mm 3 mps 742 mmHg 72%
08:00 +30°C° 0 mm 3 mps 742 mmHg 65%
09:00 +32°C° 0 mm 4 mps 743 mmHg 58%
10:00 +34°C° 0 mm 4 mps 742 mmHg 53%
11:00 +35°C° 0 mm 4 mps 742 mmHg 49%
12:00 +36°C° 0 mm 4 mps 742 mmHg 45%
13:00 +36°C° 0 mm 5 mps 741 mmHg 45%
14:00 +36°C° 0 mm 5 mps 740 mmHg 45%
15:00 +36°C° 0 mm 6 mps 740 mmHg 46%
16:00 +35°C° 0 mm 6 mps 740 mmHg 51%
17:00 +34°C° 0 mm 6 mps 740 mmHg 57%
18:00 +32°C° 0 mm 6 mps 740 mmHg 62%
19:00 +32°C° 0 mm 6 mps 741 mmHg 65%
20:00 +30°C° 0 mm 5 mps 741 mmHg 67%
21:00 +30°C° 0 mm 4 mps 742 mmHg 69%
22:00 +29°C° 0 mm 4 mps 742 mmHg 71%
23:00 +29°C° 0 mm 4 mps 742 mmHg 72%

10 March, Wednesday

Time Temperature Precipitation Wind Pressure Humidity
00:00 +29°C° 0 mm 3 mps 742 mmHg 73%
01:00 +28°C° 0 mm 3 mps 742 mmHg 75%
02:00 +28°C° 0 mm 3 mps 741 mmHg 77%
03:00 +28°C° 0 mm 3 mps 741 mmHg 78%
04:00 +28°C° 0 mm 4 mps 741 mmHg 79%
05:00 +27°C° 0 mm 4 mps 741 mmHg 80%
06:00 +27°C° 0 mm 4 mps 741 mmHg 81%
07:00 +28°C° 0 mm 4 mps 742 mmHg 76%
08:00 +29°C° 0 mm 4 mps 742 mmHg 71%
09:00 +32°C° 0 mm 5 mps 743 mmHg 65%
10:00 +33°C° 0 mm 5 mps 743 mmHg 60%
11:00 +35°C° 0 mm 5 mps 742 mmHg 54%
12:00 +36°C° 0 mm 5 mps 742 mmHg 49%
13:00 +36°C° 0 mm 5 mps 741 mmHg 50%
14:00 +36°C° 0 mm 6 mps 741 mmHg 51%
15:00 +35°C° 0 mm 6 mps 740 mmHg 52%
16:00 +34°C° 0.1 mm 6 mps 740 mmHg 56%
17:00 +33°C° 0.1 mm 6 mps 740 mmHg 61%
18:00 +32°C° 0.1 mm 6 mps 740 mmHg 66%
19:00 +30°C° 0.1 mm 6 mps 741 mmHg 69%
20:00 +30°C° 0.1 mm 5 mps 741 mmHg 73%
21:00 +29°C° 0.1 mm 5 mps 742 mmHg 76%
22:00 +29°C° 0 mm 5 mps 742 mmHg 77%
23:00 +29°C° 0 mm 5 mps 742 mmHg 78%

11 March, Thursday

Time Temperature Precipitation Wind Pressure Humidity
00:00 +28°C° 0 mm 4 mps 742 mmHg 79%
01:00 +28°C° 0 mm 4 mps 742 mmHg 80%
02:00 +28°C° 0 mm 4 mps 741 mmHg 81%
03:00 +28°C° 0 mm 4 mps 741 mmHg 82%
04:00 +28°C° 0 mm 3 mps 741 mmHg 82%
05:00 +28°C° 0 mm 3 mps 741 mmHg 83%
06:00 +27°C° 0 mm 3 mps 742 mmHg 84%
07:00 +29°C° 0 mm 3 mps 742 mmHg 78%
08:00 +30°C° 0 mm 4 mps 742 mmHg 72%
09:00 +32°C° 0 mm 4 mps 743 mmHg 66%
10:00 +33°C° 0 mm 5 mps 743 mmHg 63%
11:00 +34°C° 0 mm 5 mps 742 mmHg 59%
12:00 +35°C° 0 mm 5 mps 742 mmHg 55%
13:00 +35°C° 0.3 mm 5 mps 741 mmHg 57%
14:00 +34°C° 0.3 mm 6 mps 741 mmHg 58%
15:00 +34°C° 0.3 mm 6 mps 740 mmHg 59%
16:00 +33°C° 0.1 mm 6 mps 740 mmHg 62%
17:00 +32°C° 0.1 mm 5 mps 740 mmHg 64%
18:00 +32°C° 0.1 mm 5 mps 740 mmHg 66%
19:00 +30°C° 0 mm 5 mps 741 mmHg 69%
20:00 +30°C° 0 mm 5 mps 741 mmHg 72%
21:00 +29°C° 0 mm 5 mps 742 mmHg 75%
22:00 +29°C° 0 mm 4 mps 742 mmHg 75%
23:00 +29°C° 0 mm 4 mps 742 mmHg 76%

12 March, Friday

Time Temperature Precipitation Wind Pressure Humidity
00:00 +28°C° 0 mm 4 mps 742 mmHg 77%
01:00 +28°C° 0 mm 4 mps 742 mmHg 78%
02:00 +28°C° 0 mm 4 mps 742 mmHg 78%
03:00 +28°C° 0 mm 4 mps 741 mmHg 79%
04:00 +27°C° 0 mm 3 mps 741 mmHg 80%
05:00 +27°C° 0 mm 3 mps 741 mmHg 81%
06:00 +27°C° 0 mm 2 mps 741 mmHg 83%
07:00 +28°C° 0 mm 3 mps 742 mmHg 76%
08:00 +29°C° 0 mm 4 mps 742 mmHg 70%
09:00 +32°C° 0 mm 4 mps 743 mmHg 64%
10:00 +33°C° 0 mm 4 mps 743 mmHg 58%
11:00 +35°C° 0 mm 4 mps 742 mmHg 52%
12:00 +36°C° 0 mm 4 mps 742 mmHg 47%
13:00 +36°C° 0.1 mm 5 mps 741 mmHg 48%
14:00 +36°C° 0.1 mm 5 mps 740 mmHg 50%
15:00 +35°C° 0.1 mm 6 mps 740 mmHg 51%
16:00 +34°C° 0.5 mm 6 mps 740 mmHg 56%
17:00 +33°C° 0.5 mm 7 mps 740 mmHg 60%
18:00 +32°C° 0.5 mm 7 mps 740 mmHg 65%
19:00 +30°C° 0.3 mm 6 mps 741 mmHg 67%
20:00 +30°C° 0.3 mm 5 mps 742 mmHg 70%
21:00 +29°C° 0.3 mm 5 mps 743 mmHg 72%
22:00 +29°C° 1.1 mm 5 mps 743 mmHg 74%
23:00 +29°C° 1.1 mm 5 mps 742 mmHg 75%
Show more